This demonstration page uses our WeatherBlox Daily Observations layout. Learn more.

Left ArrowRight Arrow

Hourly Observations for May 6, 2021

Temp ( °F °C ) Dew Point ( °F °C ) Humidity (%) Winds ( mph kmh ) Pressure ( in mb ) Visibility ( mi km ) Precip ( " mm )
12:53 am 00:53 Clear 42 5.6 40 4.4 92 92 WNW 3 6 30.16 1021 10 16.0934 N/A
1:53 am 01:53 Clear 41 5 39 3.9 93 93 N N/A 30.16 1021 10 16.0934 N/A
2:53 am 02:53 Clear 39 3.9 38 3.3 96 96 N N/A 30.16 1021 10 16.0934 N/A
3:53 am 03:53 Clear 38 3.3 37 2.8 97 97 N N/A 30.14 1021 10 16.0934 N/A
4:53 am 04:53 Clear 38 3.3 37 2.8 97 97 N N/A 30.15 1021 10 16.0934 N/A
5:53 am 05:53 Clear 39 3.9 37 2.8 93 93 N N/A 30.16 1021 10 16.0934 N/A
6:53 am 06:53 Sunny 40 4.4 39 3.9 97 97 N N/A 30.16 1021 10 16.0934 N/A
7:53 am 07:53 Sunny 43 6.1 39 3.9 86 86 N N/A 30.17 1022 10 16.0934 N/A
8:53 am 08:53 Sunny 47 8.3 39 3.9 74 74 N N/A 30.17 1022 10 16.0934 N/A
9:53 am 09:53 Sunny 53 11.7 40 4.4 61 61 VRB 5 7 30.17 1022 10 16.0934 N/A
10:53 am 10:53 Sunny 56 13.3 41 5 57 57 VRB 3 6 30.16 1021 10 16.0934 N/A
11:53 am 11:53 Sunny 60 15.6 41 5 50 50 VRB 6 9 30.14 1021 10 16.0934 N/A
12:53 pm 12:53 Sunny 62 16.7 38 3.3 41 41 WSW 8 13 30.12 1020 10 16.0934 N/A
1:53 pm 13:53 Partly Cloudy 63 17.2 38 3.3 40 40 VRB 5 7 30.09 1019 10 16.0934 N/A
2:53 pm 14:53 Cloudy 62 16.7 36 2.2 38 38 N N/A 30.06 1018 10 16.0934 N/A
3:53 pm 15:53 Cloudy 61 16.1 39 3.9 44 44 WSW 6 9 30.04 1017 10 16.0934 N/A
4:53 pm 16:53 Cloudy 60 15.6 41 5 50 50 N N/A 30.03 1017 10 16.0934 0.001 0.001
5:53 pm 17:53 Partly Cloudy 61 16.1 41 5 48 48 SW 3 6 30.01 1016 10 16.0934 0.001 0.001
6:53 pm 18:53 Cloudy 60 15.6 42 5.6 52 52 N N/A 30 1016 10 16.0934 N/A
7:53 pm 19:53 Cloudy with Light Rain 57 13.9 45 7.2 64 64 VRB 5 7 30 1016 10 16.0934 0.001 0.001
8:53 pm 20:53 Cloudy with Light Rain 51 10.6 48 8.9 89 89 NW 5 7 30.01 1016 7 11.26538 0.1 2.54
9:53 pm 21:53 Cloudy with Light Rain 50 10 49 9.4 96 96 N N/A 30.02 1017 4 6.43736 0.11 2.794
10:53 pm 22:53 Cloudy with Light Rain 50 10 48 8.9 93 93 VRB 3 6 30.01 1016 10 16.0934 0.03 0.762
11:53 pm 23:53 Cloudy with Light Rain 49 9.4 47 8.3 93 93 W 5 7 30.01 1016 10 16.0934 0.03 0.762

Powered by AerisWeather